[[{"header":{"parameterUnit":"m.s-1","parameterCategory":1,"la1":30.2991,"la2":30.254,"lo1":-89.0895,"lo2":-89.0444,"dy":0.0017,"dx":0.0017,"nx":28,"ny":28,"refTime":"2024-05-06T03:00:00:Z","depth":0,"parameterNumber":2,"parameterNumberName":"U-component_of_WINDS"},"data":[0,0,0,0,0,0,0,0,0,0,0,0,0,0,0,0,0,0,0,0,0,0,0,0,0,0,0,0,0,0,0,0,0,0,0,0,0,0,0,0,0,0,0,0,0,0,0,0,0,0,0,0,0,0,0,0,0,0,-0.5386,-0.5386,0,-0.539,-0.539,-0.539,-0.5405,-0.5405,-0.5406,-0.5406,-0.541,-0.5409,-0.5409,0,0,0,0,0,0,0,0,0,0,0,0,0,-0.5394,-0.5393,-0.5386,-0.5386,-0.5386,-0.539,-0.539,-0.539,-0.5405,-0.5405,-0.5406,-0.5406,-0.541,-0.5409,-0.5409,0,0,0,0,0,0,0,0,0,0,0,0,0,-0.5393,-0.5393,-0.5386,-0.5394,-0.5395,-0.539,-0.539,-0.539,-0.5405,-0.5405,-0.5406,-0.5406,-0.541,-0.5409,-0.5409,-0.5396,0,0,-0.5408,-0.5408,0,0,0,0,0,0,0,0,-0.5393,-0.5393,-0.5393,-0.5394,-0.5395,-0.5397,-0.5393,-0.5392,-0.5405,-0.5401,-0.5406,-0.5407,-0.5405,-0.5405,-0.5405,-0.5396,-0.5396,-0.5408,-0.5408,-0.5407,-0.5407,0,0,0,0,0,0,0,-0.5393,-0.5393,-0.5388,-0.5393,-0.5394,-0.5398,-0.5398,-0.5393,-0.54,-0.5402,-0.5403,-0.5403,-0.5406,-0.5405,-0.5405,-0.5396,-0.5408,-0.5407,-0.5407,-0.5407,-0.5377,-0.5377,0,0,0,0,0,0,-0.5392,-0.5393,-0.5387,-0.5388,-0.5395,-0.5397,-0.5398,-0.5396,-0.54,-0.5401,-0.5402,-0.5404,-0.5405,-0.5405,-0.5405,-0.539,-0.5407,-0.5407,-0.5407,-0.5378,-0.5377,-0.5377,0,0,0,0,0,0,-0.5392,-0.5391,-0.5387,-0.539,-0.539,-0.5397,-0.5394,-0.5396,-0.5395,-0.5401,-0.5402,-0.54,-0.5406,-0.5405,-0.5398,-0.539,-0.5407,-0.5407,-0.5379,-0.5378,-0.5377,-0.536,0,0,0,0,0,0,-0.5392,-0.5391,-0.5386,-0.539,-0.539,-0.538,-0.5394,-0.5395,-0.5394,-0.5396,-0.5399,-0.54,-0.5406,-0.5399,-0.5398,-0.539,-0.5406,-0.5379,-0.5378,-0.5377,-0.5361,-0.5359,-0.5357,0,0,0,0,0,-0.5392,-0.5381,-0.5386,-0.5385,-0.5384,-0.538,-0.538,-0.5387,-0.5394,-0.5389,-0.5392,-0.54,-0.5391,-0.5398,-0.5397,-0.5389,-0.538,-0.5379,-0.5377,-0.5363,-0.5359,-0.5357,0,0,0,0,0,0,-0.5376,-0.5382,-0.5387,-0.5377,-0.5378,-0.5382,-0.5376,-0.5383,-0.5382,-0.5383,-0.5392,-0.5392,-0.5384,-0.5386,-0.5393,-0.5377,-0.5387,-0.5385,-0.5376,-0.5373,-0.5371,-0.5371,-0.5406,0,0,0,0,0,-0.5371,-0.5368,-0.5373,-0.5363,-0.5364,-0.537,-0.5368,-0.5374,-0.5375,-0.5375,-0.5378,-0.5379,-0.5377,-0.5375,-0.5373,-0.5362,-0.5363,-0.5356,-0.5354,-0.5352,-0.535,-0.5345,-0.5342,-0.5372,-0.5372,-0.5373,0,0,-0.5362,-0.5364,-0.5361,-0.536,-0.5362,-0.5358,-0.537,-0.5365,-0.5362,-0.5374,-0.5368,-0.537,-0.5372,-0.5363,-0.5359,-0.5364,-0.5342,-0.535,-0.5348,-0.5348,-0.5343,-0.5341,-0.5338,-0.5372,-0.5372,-0.5372,0,0,-0.5342,-0.5343,-0.5336,-0.5337,-0.5339,-0.5343,-0.5341,-0.5345,-0.5347,-0.534,-0.5349,-0.5346,-0.5341,-0.5342,-0.5342,-0.5323,-0.533,-0.5322,-0.531,-0.5304,-0.5302,-0.53,-0.5293,-0.5291,-0.5321,-0.532,-0.532,0,-0.5329,-0.5324,-0.5331,-0.5326,-0.5325,-0.5336,-0.5329,-0.5329,-0.533,-0.533,-0.5335,-0.533,-0.5332,-0.5323,-0.5318,-0.5318,-0.5316,-0.5322,-0.5302,-0.53,-0.5298,-0.5292,-0.5289,-0.532,-0.532,-0.532,-0.532,0,-0.5309,-0.5305,-0.5298,-0.5299,-0.5298,-0.5291,-0.5298,-0.5296,-0.5301,-0.5305,-0.5298,-0.5301,-0.53,-0.5298,-0.5303,-0.529,-0.5293,-0.53,-0.531,-0.5294,-0.5288,-0.5286,-0.5318,-0.5319,-0.5319,-0.5319,0,0,-0.5279,-0.5284,-0.5282,-0.5282,-0.5285,-0.5282,-0.5276,-0.5275,-0.5273,-0.5274,-0.5269,-0.5265,-0.5272,-0.5271,-0.5277,-0.5272,-0.5257,-0.528,-0.528,-0.5276,-0.5243,-0.5238,-0.5235,-0.5262,-0.5261,-0.5261,-0.5243,0,-0.526,-0.5251,-0.5257,-0.5247,-0.5244,-0.5254,-0.5249,-0.525,-0.5253,-0.5251,-0.5254,-0.5252,-0.526,-0.526,-0.5256,-0.526,-0.5251,-0.5261,-0.5258,-0.5258,-0.5257,-0.5232,-0.5227,-0.5211,-0.5241,-0.5241,-0.524,0,-0.5238,-0.5237,-0.5226,-0.523,-0.5229,-0.5224,-0.5224,-0.5221,-0.5223,-0.5226,-0.5226,-0.5232,-0.5227,-0.5237,-0.523,-0.5237,-0.5236,-0.5237,-0.5237,-0.5237,-0.5248,-0.5233,-0.5205,-0.5203,-0.5237,-0.5237,-0.5237,0,-0.5218,-0.5214,-0.5207,-0.5208,-0.5212,-0.5208,-0.521,-0.5212,-0.5211,-0.5211,-0.521,-0.5209,-0.5209,-0.5208,-0.5214,-0.522,-0.5206,-0.5217,-0.5209,-0.5208,-0.5206,-0.5206,-0.5178,-0.5204,-0.5204,-0.5204,-0.5204,0,-0.5197,-0.519,-0.5199,-0.5194,-0.5187,-0.5195,-0.5187,-0.519,-0.5192,-0.5188,-0.5197,-0.5193,-0.5201,-0.5199,-0.5204,-0.5197,-0.5197,-0.5199,-0.5201,-0.5199,-0.5199,-0.5199,-0.52,-0.5204,-0.5204,-0.5204,-0.5204,0,-0.5174,-0.5179,-0.5172,-0.5177,-0.5178,-0.5172,-0.5176,-0.5172,-0.5176,-0.5172,-0.5171,-0.5177,-0.5175,-0.5181,-0.5179,-0.5182,-0.5173,-0.5176,-0.5173,-0.5174,-0.5166,-0.5167,-0.5138,-0.5135,-0.5162,-0.5162,-0.5161,0,-0.516,-0.5155,-0.5159,-0.5157,-0.5158,-0.5156,-0.5155,-0.5162,-0.516,-0.5162,-0.5158,-0.5156,-0.5156,-0.5151,-0.5155,-0.5154,-0.5157,-0.5147,-0.5157,-0.5156,-0.5158,-0.5158,-0.5158,-0.5146,-0.5145,-0.5145,-0.5145,0,-0.5136,-0.5139,-0.5137,-0.5136,-0.5135,-0.5135,-0.5135,-0.5133,-0.5141,-0.5139,-0.5137,-0.5136,-0.5134,-0.5132,-0.5132,-0.5134,-0.5141,-0.5141,-0.514,-0.5138,-0.5136,-0.5137,-0.5168,-0.5142,-0.5142,-0.5143,-0.5143,-0.5143,-0.5117,-0.5114,-0.5116,-0.5114,-0.5115,-0.5115,-0.5112,-0.5115,-0.5113,-0.5113,-0.5117,-0.5114,-0.5115,-0.5116,-0.5117,-0.5114,-0.5119,-0.5116,-0.5116,-0.5115,-0.5114,-0.5136,-0.5114,-0.5114,-0.5114,-0.5114,-0.5114,0,-0.5094,-0.5096,-0.5094,-0.5094,-0.5093,-0.5099,-0.51,-0.5098,-0.5095,-0.5096,-0.5095,-0.5092,-0.509,-0.5094,-0.5093,-0.5091,-0.5094,-0.509,-0.5091,-0.5091,-0.5109,-0.5111,-0.5088,-0.5088,-0.5088,-0.5088,-0.5088,-0.5088,-0.5082,-0.5076,-0.5079,-0.5073,-0.5075,-0.5072,-0.5072,-0.5072,-0.5073,-0.507,-0.5069,-0.5071,-0.5074,-0.5073,-0.5072,-0.5073,-0.5072,-0.5068,-0.507,-0.5087,-0.509,-0.5092,-0.5094,-0.5067,-0.5067,-0.5052,-0.5052,-0.5052]},{"header":{"parameterUnit":"m.s-1","parameterCategory":1,"la1":30.2991,"la2":30.254,"lo1":-89.0895,"lo2":-89.0444,"dy":0.0017,"dx":0.0017,"nx":28,"ny":28,"refTime":"2024-05-06T03:00:00:Z","depth":0,"parameterNumber":3,"parameterNumberName":"V-component_of_WINDS"},"data":[0,0,0,0,0,0,0,0,0,0,0,0,0,0,0,0,0,0,0,0,0,0,0,0,0,0,0,0,0,0,0,0,0,0,0,0,0,0,0,0,0,0,0,0,0,0,0,0,0,0,0,0,0,0,0,0,0,0,6.0541,6.0542,0,6.0669,6.067,6.0672,6.0645,6.0643,6.064,6.0638,6.0762,6.0767,6.0773,0,0,0,0,0,0,0,0,0,0,0,0,0,6.0266,6.0271,6.054,6.0542,6.0544,6.0668,6.067,6.0672,6.0646,6.0643,6.064,6.0637,6.076,6.0767,6.0773,0,0,0,0,0,0,0,0,0,0,0,0,0,6.0389,6.0273,6.054,6.0546,6.0548,6.0668,6.067,6.0672,6.0646,6.0643,6.0639,6.0636,6.0758,6.0766,6.0774,6.0895,0,0,6.0799,6.0803,0,0,0,0,0,0,0,0,6.0382,6.0399,6.0543,6.0546,6.0548,6.0638,6.0619,6.0747,6.0647,6.0608,6.0638,6.0634,6.0723,6.0734,6.0765,6.0901,6.0906,6.08,6.0805,6.0809,6.0811,0,0,0,0,0,0,0,6.0373,6.0393,6.0591,6.0545,6.0548,6.054,6.0553,6.0643,6.0683,6.0612,6.061,6.0626,6.0723,6.0758,6.0768,6.0908,6.08,6.0807,6.0812,6.0815,6.1148,6.1152,0,0,0,0,0,0,6.0364,6.0386,6.0587,6.0595,6.0455,6.0547,6.0563,6.0612,6.0683,6.069,6.0629,6.0624,6.0745,6.0759,6.0772,6.0918,6.0809,6.0816,6.0821,6.1144,6.1149,6.1153,0,0,0,0,0,0,6.0358,6.0382,6.0582,6.049,6.0515,6.0556,6.0612,6.0616,6.0651,6.0696,6.0702,6.0657,6.0743,6.0761,6.0865,6.0922,6.082,6.0827,6.114,6.1146,6.1151,6.121,0,0,0,0,0,0,6.035,6.038,6.0428,6.0492,6.052,6.0675,6.0615,6.0621,6.0666,6.0661,6.0723,6.073,6.0742,6.0853,6.0873,6.0931,6.0834,6.1135,6.1142,6.1149,6.1203,6.1217,6.1229,0,0,0,0,0,6.0341,6.0438,6.043,6.0455,6.0581,6.0678,6.0694,6.0707,6.067,6.0718,6.0747,6.0728,6.0913,6.0864,6.0887,6.0948,6.1131,6.114,6.1149,6.1197,6.1215,6.1229,0,0,0,0,0,0,6.0377,6.0446,6.0439,6.056,6.0614,6.0673,6.0733,6.0725,6.0788,6.078,6.0792,6.0806,6.0912,6.094,6.0885,6.1068,6.1016,6.103,6.1046,6.1062,6.1075,6.1065,6.0841,0,0,0,0,0,6.04,6.0475,6.053,6.0632,6.066,6.0692,6.0735,6.0741,6.0795,6.0817,6.0854,6.0905,6.0975,6.102,6.1087,6.1208,6.122,6.1261,6.1274,6.1284,6.1296,6.1361,6.1379,6.1182,6.1182,6.1182,0,0,6.0446,6.0493,6.054,6.0641,6.0683,6.0758,6.0711,6.0793,6.0848,6.0828,6.093,6.0959,6.1017,6.113,6.1182,6.1157,6.1353,6.1296,6.1304,6.1309,6.1372,6.139,6.1407,6.1188,6.1187,6.1186,0,0,6.0569,6.0614,6.0703,6.0747,6.0812,6.0833,6.0855,6.0917,6.0936,6.1038,6.1025,6.109,6.121,6.1252,6.1289,6.143,6.1414,6.1451,6.1518,6.1581,6.1597,6.1611,6.166,6.1677,6.1462,6.1462,6.1462,0,6.0618,6.0734,6.0749,6.0833,6.0877,6.0866,6.0955,6.0996,6.1079,6.1108,6.108,6.1231,6.1269,6.1392,6.1426,6.1457,6.148,6.1443,6.1594,6.1608,6.1621,6.1668,6.1686,6.1466,6.1466,6.1465,6.1465,0,6.079,6.087,6.0934,6.1017,6.1069,6.1155,6.1181,6.1231,6.1232,6.1256,6.136,6.1406,6.1482,6.1511,6.1513,6.1634,6.1617,6.1591,6.1539,6.1643,6.1687,6.1705,6.1472,6.147,6.1469,6.1468,0,0,6.0938,6.103,6.1053,6.1091,6.1163,6.1224,6.1309,6.1385,6.1427,6.1485,6.1555,6.1657,6.1635,6.1677,6.1683,6.1739,6.1846,6.1706,6.1708,6.1729,6.1981,6.1998,6.2019,6.1837,6.184,6.1843,6.1975,0,6.1067,6.122,6.1237,6.1372,6.1445,6.1436,6.151,6.156,6.1585,6.1649,6.1675,6.1747,6.1712,6.1737,6.1793,6.1821,6.1896,6.1812,6.19,6.1903,6.1884,6.2042,6.2061,6.2184,6.1993,6.1996,6.1998,0,6.1238,6.1303,6.1447,6.1509,6.154,6.1606,6.1678,6.174,6.1797,6.181,6.1859,6.1857,6.1943,6.1889,6.2005,6.1948,6.1985,6.2004,6.2009,6.2017,6.1956,6.2053,6.2224,6.2241,6.2025,6.2023,6.2021,0,6.133,6.1454,6.1556,6.1588,6.1663,6.171,6.1743,6.1797,6.1842,6.1903,6.1932,6.2002,6.204,6.2093,6.211,6.207,6.2226,6.2174,6.2238,6.2237,6.227,6.2267,6.2448,6.2296,6.2296,6.2295,6.2295,0,6.1472,6.156,6.1599,6.1661,6.1758,6.1776,6.1871,6.1901,6.1949,6.2016,6.2011,6.2073,6.2093,6.2157,6.2171,6.2265,6.2282,6.2294,6.2296,6.2294,6.2292,6.2317,6.2308,6.23,6.2299,6.2298,6.2297,0,6.1591,6.1621,6.1731,6.1794,6.1812,6.1881,6.1934,6.1993,6.2017,6.2101,6.2121,6.2158,6.2234,6.2257,6.2348,6.2357,6.2466,6.2461,6.2448,6.2448,6.251,6.2503,6.2711,6.2739,6.2571,6.2572,6.2574,0,6.1679,6.1747,6.1818,6.1863,6.1899,6.1972,6.2019,6.2038,6.2086,6.2157,6.2207,6.2283,6.2344,6.2466,6.2499,6.2568,6.2564,6.2632,6.2574,6.2569,6.2563,6.2559,6.2565,6.2643,6.2644,6.2646,6.2647,0,6.1831,6.1843,6.1912,6.1986,6.2043,6.2101,6.2158,6.2194,6.2222,6.2276,6.2355,6.2403,6.2497,6.2571,6.2642,6.2673,6.2664,6.2666,6.2684,6.2681,6.267,6.2676,6.2476,6.266,6.2659,6.2658,6.2657,6.2657,6.1937,6.1996,6.2056,6.2133,6.2178,6.2231,6.229,6.2322,6.2389,6.2469,6.2476,6.2561,6.2615,6.2709,6.2744,6.281,6.2789,6.2816,6.2823,6.2829,6.2833,6.2661,6.2822,6.2822,6.2822,6.2822,6.2821,0,6.2088,6.2126,6.2197,6.2277,6.2337,6.2327,6.2389,6.2438,6.2514,6.2567,6.2629,6.2719,6.2792,6.2831,6.2903,6.2948,6.2945,6.2966,6.2962,6.2969,6.2848,6.2824,6.2966,6.2966,6.2966,6.2966,6.2966,6.2966,6.2173,6.2274,6.2293,6.2415,6.2452,6.2537,6.2573,6.2621,6.2664,6.2766,6.2827,6.2854,6.2901,6.2976,6.3041,6.3051,6.3077,6.3099,6.3106,6.2992,6.2977,6.2963,6.2941,6.3105,6.3105,6.3222,6.3223,6.3224]}]]